Regional Weather Roundup
Issued by NWS

Home | Current Version | Previous Version | Graphics & Text | Print | Product List | Glossary On
Versions: 1 2 3 4 5 6 7 8 9 10 11 12 13 14 15 16 17 18 19 20 21 22 23 24 25 26 27 28 29 30 31 32 33 34 35 36 37 38 39 40 41 42 43 44 45 46 47 48 49 50
871
ASUS43 KMKX 271211
RWRWI

WISCONSIN REGIONAL WEATHER ROUNDUP
NATIONAL WEATHER SERVICE MILWAUKEE/SULLIVAN WI
600 AM CST MON FEB 27 2017

NOTE: "FAIR" INDICATES FEW OR NO CLOUDS BELOW 12,000 FEET WITH NO
SIGNIFICANT WEATHER AND/OR OBSTRUCTIONS TO VISIBILITY.

WIZ001-002-006>008-014>016-023>028-271300-
NORTHWEST WISCONSIN

CITY           SKY/WX    TMP DP  RH WIND       PRES   REMARKS
SUPERIOR ARPT  CLOUDY    17  11  76 CALM      29.98S
6HR MIN TEMP:   6; 6HR MAX TEMP:  17;

ASHLAND        CLOUDY    18  10  71 CALM      30.00S
6HR MIN TEMP:   7; 6HR MAX TEMP:  18;

HAYWARD        FLURRIES  21  16  81 E3        29.95F
6HR MIN TEMP:  11; 6HR MAX TEMP:  22; 6HR PCP: TRACE;

SIREN          PTCLDY    21  18  89 CALM      29.96R
6HR MIN TEMP:  18; 6HR MAX TEMP:  24;

CUMBERLAND     CLOUDY    25  18  74 SE3       29.94R
RICE LAKE      CLOUDY    24  18  77 SE6       29.97S WCI  17
6HR MIN TEMP:  24; 6HR MAX TEMP:  26;

CHETEK         CLOUDY    23  18  82 SE7       29.96S WCI  14
6HR MIN TEMP:  21; 6HR MAX TEMP:  25;

LADYSMITH      CLOUDY    23  15  70 SE3       29.98S
6HR MIN TEMP:  14; 6HR MAX TEMP:  24;

EAU CLAIRE     MOCLDY    22  19  89 S7        29.99R WCI  13
6HR MIN TEMP:  21; 6HR MAX TEMP:  26;

MENOMONIE      CLEAR     18  17  96 E7        29.99R FOG     WCI   9
6HR MIN TEMP:  18; 6HR MAX TEMP:  26;

NEW RICHMOND   CLOUDY    23  20  87 S6        29.95S WCI  16
6HR MIN TEMP:  23; 6HR MAX TEMP:  28;

OSCEOLA        CLEAR     25  22  89 SE7       29.97S WCI  17
6HR MIN TEMP:  25; 6HR MAX TEMP:  28;

$$

WIZ003>005-009-010-017-018-271300-
NORTH CENTRAL WISCONSIN

CITY           SKY/WX    TMP DP  RH WIND       PRES   REMARKS
MANITOWISH WTR FLURRIES  10   8  94 CALM      29.97R
6HR MIN TEMP:  -4; 6HR MAX TEMP:  10;

ARBOR VITAE    LGT SNOW  17  11  77 SE3         N/A
6HR MIN TEMP:   3; 6HR MAX TEMP:  17;

WOODRUFF       LGT SNOW  17  11  77 SE3         N/A
6HR MIN TEMP:   3; 6HR MAX TEMP:  17;

RHINELANDER    CLOUDY   N/A N/A N/A E3        29.98F
                                      6HR PCP: TRACE;

EAGLE RIVER    CLOUDY     9   5  84 CALM      29.98S
6HR MIN TEMP:  -1; 6HR MAX TEMP:   9;

LAND O LAKES   CLOUDY     3   0  85 CALM      29.99S
6HR MIN TEMP:  -7; 6HR MAX TEMP:   3;

PHILLIPS       CLOUDY    20  13  73 CALM      29.96S
6HR MIN TEMP:   5; 6HR MAX TEMP:  20;

TOMAHAWK       CLOUDY    17  12  80 CALM      29.99S
6HR MIN TEMP:   4; 6HR MAX TEMP:  17;

MEDFORD        MOCLDY    22  18  85 SE7       29.98R WCI  13
6HR MIN TEMP:  12; 6HR MAX TEMP:  23;

MERRILL        NOT AVBL
$$

WIZ029-030-035-036-043>047-271300-
CENTRAL WISCONSIN

CITY           SKY/WX    TMP DP  RH WIND       PRES   REMARKS
WAUSAU         CLOUDY    22  19  89 SE6       30.01S WCI  14
6HR MIN TEMP:  21; 6HR MAX TEMP:  23;

MOSINEE        MOCLDY    21  21 100 E3        30.03S
MARSHFIELD     CLOUDY    22  20  92 S6        30.00R WCI  14
6HR MIN TEMP:  20; 6HR MAX TEMP:  24;

STEVENS POINT  CLOUDY    22  21  94 S3        30.04S
6HR MIN TEMP:  16; 6HR MAX TEMP:  26;

WAUPACA        MOCLDY    21  18  90 CALM      30.07S
6HR MIN TEMP:  19; 6HR MAX TEMP:  30;

WAUTOMA        CLEAR     15  12  88 CALM      30.08R
6HR MIN TEMP:  15; 6HR MAX TEMP:  28;

WISC RAPIDS    PTCLDY    21  19  92 S5        30.05R WCI  15
6HR MIN TEMP:  20; 6HR MAX TEMP:  27;

CAMP DOUGLAS   CLEAR     19  18  93 CALM      30.05R
$$

WIZ011>013-019>022-031-037>040-048>050-271300-
NORTHEAST WISCONSIN

CITY           SKY/WX    TMP DP  RH WIND       PRES   REMARKS
ANTIGO         CLOUDY    19  11  73 SE10      30.02R WCI   7
6HR MIN TEMP:   9; 6HR MAX TEMP:  19;

SHAWANO        CLOUDY    24  16  70 CALM      30.09R
6HR MIN TEMP:  20; 6HR MAX TEMP:  31;

OCONTO         PTCLDY    15  11  84 CALM      30.09S
6HR MIN TEMP:  14; 6HR MAX TEMP:  29;

STURGEON BAY   CLEAR     19  13  77 MISG      30.10S
6HR MIN TEMP:  17; 6HR MAX TEMP:  28; 6HR PCP: TRACE;

GREEN BAY      PTCLDY    22  17  81 CALM      30.09R
6HR MIN TEMP:  22; 6HR MAX TEMP:  30;

MANITOWOC      PTCLDY    19  17  92 CALM      30.10S
6HR MIN TEMP:  18; 6HR MAX TEMP:  31;

APPLETON       MOCLDY    21  18  86 VRB3      30.05S
CLINTONVILLE   CLOUDY    23  19  86 E3        30.08R
OSHKOSH        CLEAR     20  16  84 S6        30.07S WCI  12
6HR MIN TEMP:  17; 6HR MAX TEMP:  30;

$$

WIZ032>034-041-042-053>061-271300-
SOUTHWEST WISCONSIN

CITY           SKY/WX    TMP DP  RH WIND       PRES   REMARKS
LA CROSSE      CLEAR     24  20  84 SE6       30.05R WCI  17
6HR MIN TEMP:  24; 6HR MAX TEMP:  29;

SPARTA         CLEAR     14  13  95 CALM      30.05S
6HR MIN TEMP:  13; 6HR MAX TEMP:  21;

VIROQUA        CLEAR     24  22  93 SE7       30.03R WCI  15
6HR MIN TEMP:  22; 6HR MAX TEMP:  25;

BOSCOBEL       MOCLDY    19  17  92 CALM      30.09R
6HR MIN TEMP:  19; 6HR MAX TEMP:  26;

PRAIRIE DU CHI CLEAR     23  21  93 CALM      30.08R
6HR MIN TEMP:  22; 6HR MAX TEMP:  28;

PLATTEVILLE    CLEAR     26  25  96 E8        30.07R WCI  17
6HR MIN TEMP:  25; 6HR MAX TEMP:  30;

$$

WIZ056-057-062-063-064-067-068-271300-
SOUTH CENTRAL WISCONSIN

CITY           SKY/WX    TMP DP  RH WIND       PRES   REMARKS
REEDSBURG      CLEAR     21  21 100 CALM      30.06R
6HR MIN TEMP:  21; 6HR MAX TEMP:  28;

BARABOO/DELLS  CLEAR     22  21  93 CALM      30.06R
6HR MIN TEMP:  21; 6HR MAX TEMP:  28;

LONE ROCK      CLEAR     22  19  89 E3        30.09R
6HR MIN TEMP:  21; 6HR MAX TEMP:  27;

MINERAL POINT  CLEAR     27  27 100 SE6       30.06R WCI  20
MADISON        PTCLDY    23  20  88 S3        30.08R
6HR MIN TEMP:  21; 6HR MAX TEMP:  29;

MIDDLETON      CLEAR     23  22  96 CALM      30.09R
6HR MIN TEMP:  23; 6HR MAX TEMP:  30;

WATERTOWN      CLEAR     22  22 100 CALM      30.09S
6HR MIN TEMP:  20; 6HR MAX TEMP:  29;

MONROE         CLEAR     27  23  86 SE6       30.07R WCI  20
JANESVILLE     CLEAR     23  23 100 CALM      30.10R
$$

WIZ051-052-058>065-066-070>072-271300-
SOUTHEAST WISCONSIN

CITY           SKY/WX    TMP DP  RH WIND       PRES   REMARKS
MILWAUKEE      PTCLDY    24  20  84 CALM      30.11R
6HR MIN TEMP:  23; 6HR MAX TEMP:  35;

WAUKESHA       CLEAR     21  19  93 CALM      30.10S
MILWAUKEE/TIMM CLEAR     23  19  86 CALM      30.11S
RACINE         PTCLDY    23  20  88 SW3       30.13R
6HR MIN TEMP:  22; 6HR MAX TEMP:  34;

KENOSHA        CLEAR     26  24  92 S6        30.12R FOG     WCI  19
6HR MIN TEMP:  24; 6HR MAX TEMP:  33;

FOND DU LAC    CLEAR     23  17  78 S5        30.08S WCI  17
6HR MIN TEMP:  21; 6HR MAX TEMP:  29;

SHEBOYGAN      CLEAR     21  18  88 CALM      30.09S
6HR MIN TEMP:  21; 6HR MAX TEMP:  31;

WEST BEND      CLEAR     23  23 100 CALM      30.09S
JUNEAU         CLEAR     25  22  88 SE6       30.09S WCI  18
6HR MIN TEMP:  24; 6HR MAX TEMP:  30;

$$

LSZ147-162-271300-
LAKE SUPERIOR

STATION/POSITION TIME  TEMP    WIND        PRES    WAVE
                       AIR SEA DIR/SP/G            HT/PER
                 (UTC) (F)     (DEG/KT/KT) (MB)    (FT/S)
DEVILS ISLAND    1100   24     230/  7/  9 1016.8F
PORT WING        1140   18     130/  2/  4 1015.6S
SAXON HARBOR     1140   18     180/  4/  6 1015.9S
$$

LMZ867-665-643>646-271300-
LAKE MICHIGAN

STATION/POSITION TIME  TEMP    WIND        PRES    WAVE
                       AIR SEA DIR/SP/G            HT/PER
                 (UTC) (F)     (DEG/KT/KT) (MB)    (FT/S)
CHAMBERS ISLAND  1140   17        CALM     1018.6S
NORTHPORT PIER   1140   18        CALM     1019.3R
SISTER BAY       1135   18        CALM       N/A
KEWAUNEE LAKESHO 1148   28     11



USA.gov is the U.S. government's official web portal to all federal, state and local government web resources and services.